Regional Weather Roundup
Issued by NWS

Home | Current Version | Previous Version | Graphics & Text | Print | Product List | Glossary Off
Versions: 1 2 3 4 5 6 7 8 9 10 11 12 13 14 15 16 17 18 19 20 21 22 23 24 25 26 27 28 29 30 31 32 33 34 35 36 37 38 39 40 41 42 43 44 45 46 47 48 49 50

000
ASUS43 KTOP 301208
RWRKS

WEATHER ROUNDUP FOR KANSAS
NATIONAL WEATHER SERVICE GOODLAND KS
700 AM CDT SAT AUG 30 2014

NOTE:  "FAIR" INDICATES FEW OR NO CLOUDS BELOW 12,000 FEET WITH NO
SIGNIFICANT WEATHER AND/OR OBSTRUCTIONS TO VISIBILITY.

KSZ001>006-013>018-027>032-041>047-301300-
NORTHWEST KANSAS

CITY           SKY/WX    TMP DP  RH WIND       PRES   REMARKS
GOODLAND       PTCLDY    55  53  93 W3        30.05S
6HR MIN TEMP:  55; 6HR MAX TEMP:  63;

HAYS           CLEAR     61  54  77 NE3       29.99S
HILL CITY      CLEAR     60  58  92 E5        29.99S
6HR MIN TEMP:  60; 6HR MAX TEMP:  65;

RUSSELL        CLEAR     62  57  83 W5        29.98R
6HR MIN TEMP:  61; 6HR MAX TEMP:  69;

$$

KSZ061>065-074>080-084>089-301300-
SOUTHWEST KANSAS

CITY           SKY/WX    TMP DP  RH WIND       PRES   REMARKS
DODGE CITY     PTCLDY    64  53  67 SW6       30.02R
6HR MIN TEMP:  61; 6HR MAX TEMP:  68;

ELKHART          N/A     65  53  65 W1          N/A
GARDEN CITY    CLEAR     60  52  74 E3        30.04R
6HR MIN TEMP:  57; 6HR MAX TEMP:  67;

GREAT BEND     CLEAR     61  54  77 NW3       29.99S
LIBERAL        PTCLDY    61  52  72 W8        30.05S
PRATT          CLEAR     59  55  88 NW7       29.99R
$$

KSZ066>073-081>083-090>101-301300-
SOUTHEAST KANSAS

CITY           SKY/WX    TMP DP  RH WIND       PRES   REMARKS
CHANUTE        CLEAR     70  68  93 S5        29.94R
6HR MIN TEMP:  70; 6HR MAX TEMP:  73;

COFFEYVILLE    CLEAR     72  70  93 S6        29.93R
6HR MIN TEMP:  72; 6HR MAX TEMP:  73;

HUTCHINSON     CLEAR     63  61  93 N3        29.96R
6HR MIN TEMP:  61; 6HR MAX TEMP:  68;

MEDICINE LODGE   N/A     61  59  93 NW5       29.97R
NEWTON         CLEAR     64  61  88 NW6       29.98R
PARSONS        CLEAR     70  68  93 CALM      29.95R
6HR MIN TEMP:  70; 6HR MAX TEMP:  74;

WICHITA INTL   PTCLDY    65  63  93 CALM      29.94R FOG
6HR MIN TEMP:  64; 6HR MAX TEMP:  70;

WICHITA JABRA  FOG       63  63 100 CALM      29.94R VSB 1/4
6HR MIN TEMP:  63; 6HR MAX TEMP:  72;

WICHITA MCCONL CLEAR     67  67 100 CALM      29.95R
WINFIELD       CLEAR     67  66  97 CALM      29.95R
6HR MIN TEMP:  66; 6HR MAX TEMP:  72;

$$

KSZ007>012-019>026-033>040-048>060-102>105-301300-
NORTHEAST KANSAS

CITY           SKY/WX    TMP DP  RH WIND       PRES   REMARKS
CONCORDIA      CLEAR     62  62 100 W5        29.96R
6HR MIN TEMP:  62; 6HR MAX TEMP:  68;

EMPORIA        CLEAR     65  64  97 CALM      29.94R FOG
6HR MIN TEMP:  64; 6HR MAX TEMP:  70;

LAWRENCE       FOG       67  63  87 CALM      29.92R VSB 1/4
6HR MIN TEMP:  66; 6HR MAX TEMP:  74;

MANHATTAN      CLEAR     65  63  93 W3        29.94R
6HR MIN TEMP:  63; 6HR MAX TEMP:  72;

MARYSVILLE     CLEAR     63  63 100 NW5       29.94R
OLATHE IND     CLEAR     68  66  93 SW7       29.93R
6HR MIN TEMP:  68; 6HR MAX TEMP:  75;

OLATHE EXE     CLEAR     68  66  93 SW5       29.92R
6HR MIN TEMP:  68; 6HR MAX TEMP:  75;

SALINA         CLEAR     64  60  87 NW5       29.96R
6HR MIN TEMP:  63; 6HR MAX TEMP:  70;

TOPEKA BILLARD CLEAR     68  67  96 W5        29.93R
6HR MIN TEMP:  68; 6HR MAX TEMP:  74;

TOPEKA FORBES  CLEAR     65  64  97 W5        29.93R
6HR MIN TEMP:  64; 6HR MAX TEMP:  73;

$$


USA.gov is the U.S. government's official web portal to all federal, state and local government web resources and services.